Racecast

Leon Golf & Country Club

Difficulty: +0.004 (5000m, the usual distance here) · 407 results · 310 athletes

All 5000m 2000m

Distances raced here

DistanceDifficultyResults FirstLast
5000m +0.004 343 2024-09-10 2025-10-23
2000m 64 2025-09-09 2025-09-09

Best speed ratings all distances

Boys

#AthleteRating TimeDistSchoolDate
1 David Nichols 123.1 16:36.3 5000m Earlham (IA) 2025-10-23
2 Lucas Anderson 121.5 16:56.2 5000m Chariton (IA) 2024-09-10
3 Lincoln Bainbridge 121.5 16:48.9 5000m Van Buren County (IA) 2025-10-23
4 Brent Crabb 121.5 16:56.6 5000m Chariton (IA) 2024-09-10
5 Dawson Braet 120.7 16:55.7 5000m Earlham (IA) 2025-10-23
6 Cy Stuart 119.9 17:02.6 5000m Chariton (IA) 2025-09-09
7 Cody Dixson 118.5 17:22.2 5000m Chariton (IA) 2024-09-10
8 Donovan Braet 118.4 17:15.3 5000m Earlham (IA) 2025-10-23
9 Landry Loeffler 116.8 17:29.6 5000m Van Buren County (IA) 2025-10-23
10 Gavin Noll 116.6 17:31.2 5000m Van Buren County (IA) 2025-10-23
11 Titan Reed 116.6 17:31.3 5000m Chariton (IA) 2025-09-09
12 Beau Waugh 116.3 17:34 5000m Central Decatur Leon (IA) 2025-10-23
13 Andrew Van Zee 116.3 17:34.3 5000m Earlham (IA) 2025-10-23
14 Kaleb Johnson 116.3 17:34.4 5000m Bedford (TX) 2025-10-23
15 Brock Driskill 116.2 17:34.5 5000m East Union Afton (IA) 2025-10-23
16 Wyatt Lemonds 114.6 17:49.9 5000m Fremont-Mills Tabor (IA) 2025-10-23
17 Griffin Messer 114.4 17:51.3 5000m Earlham (IA) 2025-10-23
18 Payton Dickson 114.2 17:53.1 5000m Earlham (IA) 2025-10-23
19 Kurt Kuhnen 113.8 18:04.7 5000m Pleasantville (IA) 2024-09-10
20 Tate McDole 113.5 18:00.1 5000m Lamoni (IA) 2025-10-23
21 Landon Sheffield 113.0 18:05.1 5000m Earlham (IA) 2025-10-23
22 Devante Caldwell 111.1 18:31.8 5000m Clarke Osceola (IA) 2024-09-10
23 Leo Jirak 110.4 18:30.7 5000m Van Buren County (IA) 2025-10-23
24 Cyler Wuebker 110.0 18:34.6 5000m East Union Afton (IA) 2025-10-23
25 Raiden Jimenez 109.9 18:35.2 5000m Southeast Warren Liberty Center (IA) 2025-09-09
26 Anderson Carter 109.7 18:37.4 5000m Fremont-Mills Tabor (IA) 2025-10-23
27 Reid Kite 109.1 18:44 5000m Van Buren County (IA) 2025-10-23
28 Joseph DeVore 107.9 18:56.4 5000m Clarke Osceola (IA) 2025-09-09
29 Braylon Greenwell 107.8 18:57.1 5000m Mount Ayr (IA) 2025-10-23
30 Gable Whitlow 107.7 18:57.6 5000m Moravia (NY) 2025-09-09
31 Blake Tedford 107.7 18:57.9 5000m Central Decatur Leon (IA) 2025-09-09
32 Carter Jorgenson 107.5 19:00.4 5000m Sidney (NE) 2025-10-23
33 Levi Masters 107.0 19:13.7 5000m Chariton (IA) 2024-09-10
34 Samuel Kerns 106.8 19:15.9 5000m Chariton (IA) 2024-09-10
35 Brayden Lockwood 106.4 19:12.1 5000m Griswold (CT) 2025-10-23
36 Jaren Troxel 105.3 19:24.1 5000m Van Buren County (IA) 2025-10-23
37 Sawyer Spiker 105.1 19:26.7 5000m Van Buren County (IA) 2025-10-23
38 Trevor Quigley 105.0 19:27.8 5000m Central Decatur Leon (IA) 2025-10-23
39 Cailex Williams 104.5 19:32.8 5000m Stanton (TX) 2025-10-23
40 Fred Malone 104.4 19:34.1 5000m Diagonal (IA) 2025-10-23
41 Owen Whittington 104.3 19:44.2 5000m Diagonal (IA) 2024-09-10
42 Max Pollock 103.8 19:40.2 5000m Wayne Corydon (IA) 2025-09-09
43 Noah Hagan 102.8 19:52.5 5000m Wayne Corydon (IA) 2025-10-23
44 Caden Cox 102.7 19:53.7 5000m Wayne Corydon (IA) 2025-10-23
45 Cristofer Enamorando 102.2 19:59.1 5000m Chariton (IA) 2025-09-09
46 Conner Williams 101.3 20:18.6 5000m Clarke Osceola (IA) 2024-09-10
47 Dane Krichau 101.0 20:23 5000m Pleasantville (IA) 2024-09-10
48 Derek Coker 100.8 20:16 5000m Chariton (IA) 2025-09-09
49 Luke Wade 100.7 20:26.6 5000m Clarke Osceola (IA) 2024-09-10
50 Ben Johnson 100.5 20:19.5 5000m Fremont-Mills Tabor (IA) 2025-10-23
51 Jesse Johnson 100.3 20:22.4 5000m Essex (VT) 2025-10-23
52 Bryse Auxier 100.1 20:24.9 5000m Central Decatur Leon (IA) 2025-10-23
53 Ethan Werts 99.9 20:36.6 5000m Chariton (IA) 2024-09-10
54 Lucas Phillips 99.6 20:30.4 5000m Moravia (NY) 2025-09-09
55 Solomon Claussen 99.6 20:30.6 5000m Pleasantville (IA) 2025-10-23
56 Eli Palmer 99.5 20:32.5 5000m Wayne Corydon (IA) 2025-10-23
57 Akhdar Anis 98.3 20:46.8 5000m Southwest Valley (IA) 2025-10-23
58 Brody Sparks 97.7 20:55.1 5000m Southwest Valley (IA) 2025-10-23
59 Ashon Kline 97.6 20:55.8 5000m Essex (VT) 2025-10-23
60 Cayden Quigley 97.4 9:26.3 2000m Central Decatur (IA) 2025-09-09

View all on the rankings board →

Girls

#AthleteRating TimeDistSchoolDate
1 Amanda Smith 125.4 19:36.1 5000m Earlham (IA) 2025-10-23
2 Mackenzie Harger 121.5 20:14.2 5000m Earlham (IA) 2025-10-23
3 Summer Isley 120.6 20:23.4 5000m Pleasantville (IA) 2025-10-23
4 Amelia Latch 120.5 20:24.4 5000m Pleasantville (IA) 2025-10-23
5 Kinsey Prunty 119.4 20:35.6 5000m Wayne Corydon (IA) 2025-10-23
6 Kayley Snowgren 118.8 20:41.4 5000m Van Buren County (IA) 2025-10-23
7 Destiny Brown 118.0 21:02.6 5000m Wayne Corydon (IA) 2024-09-10
8 Taylor Leahy 117.7 21:05.6 5000m Central Decatur Leon (IA) 2024-09-10
9 Addison Junker 117.5 20:55.7 5000m Lenox (IA) 2025-10-23
10 Ella Sandahl 117.4 20:56.4 5000m Essex (VT) 2025-10-23
11 Addison Doolittle 117.4 20:56.7 5000m Mount Ayr (IA) 2025-10-23
12 Rylee Philips 117.0 21:01.2 5000m Van Buren County (IA) 2025-10-23
13 Kaleigh Harvey 115.8 21:26.8 5000m Southeast Warren Liberty Center (IA) 2024-09-10
14 Rory Philips 114.9 21:24.3 5000m Van Buren County (IA) 2025-10-23
15 Isabell Hay 114.8 21:37.6 5000m Clarke Osceola (IA) 2024-09-10
16 Madelynn Schaaf 113.6 21:38.5 5000m Fremont-Mills Tabor (IA) 2025-10-23
17 Kinsley Canoyer 113.4 21:40.7 5000m Earlham (IA) 2025-10-23
18 Addyson Schreck 113.0 21:58.6 5000m Central Decatur Leon (IA) 2024-09-10
19 Shea Rodgers 112.8 21:47.8 5000m Earlham (IA) 2025-10-23
20 Ryleigh Hardman 112.7 22:02.2 5000m Pleasantville (IA) 2024-09-10
21 Gabby Titus 112.4 21:52.6 5000m Van Buren County (IA) 2025-10-23
22 Adalyn Snowgren 112.0 21:57 5000m Van Buren County (IA) 2025-10-23
23 Torri McVeigh 110.9 22:10.1 5000m Centerville (OH) 2025-09-09
24 Claire Jacobsen 110.7 22:26.3 5000m Clarke Osceola (IA) 2024-09-10
25 Haelyn Olson 110.0 22:20.6 5000m Lamoni (IA) 2025-10-23
26 Aubri Perkins 109.0 22:33.4 5000m Central Decatur Leon (IA) 2025-09-09
27 Natalia Brown 108.6 22:52.5 5000m Wayne Corydon (IA) 2024-09-10
28 Layla Strode 107.3 22:53.9 5000m Centerville (OH) 2025-09-09
29 Cece Stanley 106.6 23:03.4 5000m Earlham (IA) 2025-10-23
30 Makenna Perkins 106.6 23:18.4 5000m Central Decatur Leon (IA) 2024-09-10
31 Kacie Larsen 106.2 23:22.8 5000m Mount Ayr (IA) 2024-09-10
32 Lauren Olson 106.1 23:24.7 5000m Lamoni (IA) 2024-09-10
33 Brookelynn Billingsley 105.9 23:13.2 5000m Fremont-Mills Tabor (IA) 2025-10-23
34 Ryley Greenwell 105.6 23:16.8 5000m Mount Ayr (IA) 2025-10-23
35 Ella Pruiett 105.3 23:21.3 5000m Wayne Corydon (IA) 2025-10-23
36 Emalee Moorman 105.0 23:24.5 5000m Wayne Corydon (IA) 2025-10-23
37 Emma Coffin 104.1 23:37.6 5000m Van Buren County (IA) 2025-10-23
38 Ava England 103.9 23:39.7 5000m Mount Ayr (IA) 2025-10-23
39 Lilah Aubert 102.9 23:53.7 5000m Earlham (IA) 2025-10-23
40 Kyleigh McConnell 102.6 24:12.4 5000m Pleasantville (IA) 2024-09-10
41 Ava Van Ness 102.3 24:17 5000m Pleasantville (IA) 2024-09-10
42 Zoey Quigley 102.1 24:04.2 5000m Central Decatur Leon (IA) 2025-10-23
43 Grace Fee 101.8 24:08.4 5000m Pleasantville (IA) 2025-10-23
44 Carly Gripp 101.8 24:23 5000m Pleasantville (IA) 2024-09-10
45 Alayna Loneman 101.8 24:23.7 5000m Pleasantville (IA) 2024-09-10
46 Natalie McGaw 101.4 24:28.8 5000m Clarke Osceola (IA) 2024-09-10
47 Cadence Hammen 100.7 24:24.4 5000m Earlham (IA) 2025-10-23
48 Amber Addington 100.3 24:30 5000m Melcher-Dallas (IA) 2025-09-09
49 Adelynne Lane 99.9 24:35.8 5000m Central Decatur Leon (IA) 2025-10-23
50 London Everman 99.8 24:53.1 5000m Wayne Corydon (IA) 2024-09-10
51 Ashlynn Byer 99.5 24:56.8 5000m Mount Ayr (IA) 2024-09-10
52 Molly Morgan 99.3 24:44.7 5000m Chariton (IA) 2025-09-09
53 Lola Helton 98.6 24:56.2 5000m Central Decatur Leon (IA) 2025-09-09
54 Sheaffer Fulmer 98.2 25:02.8 5000m Pleasantville (IA) 2025-10-23
55 Taylor Juarez 97.8 25:08.4 5000m Essex (VT) 2025-10-23
56 Lauren Roberts 96.8 25:24.7 5000m Stanton (TX) 2025-10-23
57 Shiann Byrd 96.5 25:28.8 5000m Central Decatur Leon (IA) 2025-10-23
58 Isla Avery 95.3 25:47 5000m Centerville (OH) 2025-09-09
59 Lilly Katzmann 95.0 25:52.1 5000m Lamoni (IA) 2025-09-09
60 Meredith Roberts 94.8 25:56.1 5000m Stanton (TX) 2025-10-23

View all on the rankings board →

Best team performances by rating top-5 average rating, one race, all distances

Boys

#SchoolTop-5 avg DistMeetDate
1 Earlham (IA) 118.6 5000m Iowa State Qualifier - 1A - Central Decatur 2025-10-23
2 Chariton (IA) 117.3 5000m Central Decatur Invite 2024-09-10
3 Van Buren County (IA) 114.9 5000m Iowa State Qualifier - 1A - Central Decatur 2025-10-23
4 Central Decatur Leon (IA) 104.2 5000m Iowa State Qualifier - 1A - Central Decatur 2025-10-23
5 Clarke Osceola (IA) 101.0 5000m Central Decatur Invite 2024-09-10
6 Wayne Corydon (IA) 99.1 5000m Iowa State Qualifier - 1A - Central Decatur 2025-10-23
7 Pleasantville (IA) 96.7 5000m Central Decatur Invite 2024-09-10
8 Bedford (TX) 94.0 5000m Iowa State Qualifier - 1A - Central Decatur 2025-10-23
9 Centerville (OH) 91.8 5000m Central Decatur XC Invite 2025-09-09
10 Southwest Valley (IA) 91.6 5000m Iowa State Qualifier - 1A - Central Decatur 2025-10-23
11 Mount Ayr (IA) 89.6 5000m Central Decatur Invite 2024-09-10
12 Lamoni (IA) 89.0 5000m Central Decatur Invite 2024-09-10
13 Wayne (OH) 87.0 2000m Central Decatur XC Invite 2025-09-09
14 Southeast Warren Liberty Center (IA) 81.8 5000m Central Decatur XC Invite 2025-09-09
15 Mt Ayr ms (IA) 69.1 2000m Central Decatur XC Invite 2025-09-09

View all on the rankings board →

Girls

#SchoolTop-5 avg DistMeetDate
1 Earlham (IA) 115.9 5000m Iowa State Qualifier - 1A - Central Decatur 2025-10-23
2 Van Buren County (IA) 115.0 5000m Iowa State Qualifier - 1A - Central Decatur 2025-10-23
3 Pleasantville (IA) 111.1 5000m Iowa State Qualifier - 1A - Central Decatur 2025-10-23
4 Wayne Corydon (IA) 109.6 5000m Iowa State Qualifier - 1A - Central Decatur 2025-10-23
5 Central Decatur Leon (IA) 106.9 5000m Central Decatur Invite 2024-09-10
6 Mount Ayr (IA) 103.7 5000m Iowa State Qualifier - 1A - Central Decatur 2025-10-23
7 Chariton (IA) 90.2 5000m Central Decatur XC Invite 2025-09-09
8 Centerville (OH) 79.9 2000m Central Decatur XC Invite 2025-09-09

View all on the rankings board →

Meets held here all distances

MeetLast heldDistanceResults
Iowa State Qualifier - 1A - Central Decatur 2025-10-23 5000 125
Central Decatur XC Invite 2025-09-09 2000, 5000 169
Central Decatur Invite 2024-09-10 5000 113

All meets at this course →